Weather History for KSAV - April, 2014

Change the Weather History Date:

Tuesday, April 29, 2014

  Actual Average Record
Temperature  
Mean Temperature 80 °F 69 °F  
Max Temperature 86 °F 81 °F 93 °F (2002)
Min Temperature 74 °F 57 °F 39 °F (1967)
Degree Days  
Heating Degree Days 0 1  
Month to date heating degree days 37 75  
Since 1 July heating degree days 1682 1802  
Cooling Degree Days 15 5  
Month to date cooling degree days 127 89  
Year to date cooling degree days 157 131  
Growing Degree Days 30 (Base 50)    
Moisture  
Dew Point 68 °F    
Average Humidity 71    
Maximum Humidity 87    
Minimum Humidity 55    
Precipitation  
Precipitation 0.00 in 0.09 in 2.98 in (1873)
Month to date precipitation 5.46 2.98  
Year to date precipitation 12.22 13.19  
Sea Level Pressure  
Sea Level Pressure 29.92 in    
Wind  
Wind Speed 12 mph (South)    
Max Wind Speed 22 mph    
Max Gust Speed 26 mph    
Visibility 10 miles    
Events      
T = Trace of Precipitation, MM = Missing Value Source: NWS Daily Summary

Daily Weather History Graph

Daily Weather History Graph

Search for Another Location

Airport or City:

Trip Planner

Search our weather history database for the weather conditions in past years. The results will help you decide how hot, cold, wet, or windy it might be!

Date:

Astronomy

Apr. 29, 2014 Rise Set
Actual Time 6:40 AM EDT 8:04 PM EDT
Civil Twilight 6:14 AM EDT 8:30 PM EDT
Nautical Twilight 5:43 AM EDT 9:01 PM EDT
Astronomical Twilight 5:11 AM EDT 9:33 PM EDT
Moon 6:57 AM EDT (4/29) 8:41 PM EDT (4/29)
Length of Visible Light 14h 15m
Length of Day
13h 23m
New Moon, 0% of the Moon is Illuminated
Apr 29
New Moon
May 6
First Quarter
May 14
Full
May 21
Last Quarter
May 28
New

Hourly Weather History & Observations

Time (EDT) Temp. Heat Index Dew Point Humidity Pressure Visibility Wind Dir Wind Speed Gust Speed Precip Events Conditions
12:53 AM 73.9 °F - 66.0 °F 76% 29.90 in 10.0 mi South 11.5 mph - N/A   Clear
1:53 AM 73.9 °F - 66.9 °F 79% 29.87 in 10.0 mi South 12.7 mph - N/A   Clear
2:53 AM 73.9 °F - 68.0 °F 82% 29.88 in 10.0 mi South 11.5 mph - N/A   Clear
3:53 AM 73.9 °F - 69.1 °F 85% 29.87 in 10.0 mi South 9.2 mph - N/A   Clear
4:53 AM 73.9 °F - 69.1 °F 85% 29.86 in 10.0 mi South 9.2 mph - N/A   Clear
5:53 AM 73.9 °F - 69.1 °F 85% 29.88 in 10.0 mi South 9.2 mph - N/A   Overcast
6:53 AM 73.9 °F - 66.9 °F 79% 29.91 in 10.0 mi South 8.1 mph - N/A   Overcast
7:53 AM 75.0 °F - 66.9 °F 76% 29.94 in 10.0 mi South 6.9 mph - N/A   Overcast
8:53 AM 77.0 °F - 68.0 °F 74% 29.96 in 10.0 mi SSW 9.2 mph - N/A   Overcast
9:53 AM 78.1 °F - 68.0 °F 71% 29.96 in 10.0 mi SSW 12.7 mph - N/A   Overcast
10:53 AM 82.0 °F 84.5 °F 66.9 °F 60% 29.95 in 10.0 mi SSW 10.4 mph 18.4 mph N/A   Overcast
11:53 AM 82.9 °F 84.6 °F 64.9 °F 54% 29.95 in 10.0 mi WSW 12.7 mph - N/A   Overcast
12:53 PM 82.9 °F 85.0 °F 66.0 °F 56% 29.92 in 10.0 mi South 11.5 mph - N/A   Overcast
1:53 PM 84.0 °F 86.5 °F 66.9 °F 56% 29.92 in 10.0 mi SSW 13.8 mph - N/A   Overcast
2:53 PM 84.0 °F 86.5 °F 66.9 °F 56% 29.92 in 10.0 mi SSW 16.1 mph 21.9 mph N/A   Overcast
3:53 PM 84.0 °F 86.5 °F 66.9 °F 56% 29.91 in 10.0 mi SSW 11.5 mph - N/A   Overcast
4:53 PM 82.9 °F 86.5 °F 69.1 °F 63% 29.93 in 10.0 mi South 10.4 mph - N/A   Overcast
5:53 PM 80.1 °F 83.6 °F 71.1 °F 74% 29.92 in 10.0 mi South 11.5 mph - N/A   Overcast
6:53 PM 78.1 °F - 70.0 °F 76% 29.91 in 10.0 mi SSE 11.5 mph - N/A   Overcast
7:53 PM 77.0 °F - 70.0 °F 79% 29.93 in 10.0 mi South 15.0 mph - N/A   Overcast
8:53 PM 75.9 °F - 70.0 °F 82% 29.92 in 10.0 mi South 16.1 mph - N/A   Overcast
9:53 PM 75.0 °F - 70.0 °F 84% 29.97 in 10.0 mi South 13.8 mph - N/A   Overcast
10:53 PM 75.9 °F - 70.0 °F 82% 29.98 in 10.0 mi South 15.0 mph - N/A   Mostly Cloudy
11:53 PM 75.9 °F - 70.0 °F 82% 29.97 in 10.0 mi South 13.8 mph 20.7 mph N/A   Overcast